Location: Clarion
(42.7316°N, 93.7330°W)
Time: 09:33:33
(UTC+00:00)

BREEZE-M DEB (TANK) - Pass Details

Date: 22 April 2026
Orbit: 413 x 17782 km, 53.0° (Epoch: 17 May)

Event Time Altitude Azimuth Distance (km) Brightness Sun altitude
Rises 03:55:19 0° 247° (WSW) 2,934 6.2 -26.6°
Reaches altitude 10° 03:56:45 10° 250° (WSW) 2,324 5.7 -26.8°
Maximum altitude 04:01:34 70° 335° (NNW) 1,501 4.5 -27.3°
Drops below altitude 10° 04:22:40 10° 61° (ENE) 9,064 8.4 -29.5°
Sets 04:37:41 0° 65° (ENE) 13,381 9.3 -30.8°
